History for DAON

Tlemcen, DZ

Daily Weekly Monthly
Daily Summary for Monday, March 25, 2019
  Actual: Average: Record:
Temperature
Mean Temperature: 60 °F / 16 °C - :  
Max Temperature: 72 °F / 22 °C - - (-1)
Min Temperature: 49 °F / 9 °C - - (-1)
Degree Days
Heating Degree Days: 4    
Growing Degree Days 10 (Base 50)    
Moisture
Dew Point 51 °F / 11 °C    
Average Humidity 74    
Maximum Humidity 94    
Minimum Humidity 41    
Precipitation
Precipitation 0.00 in / 0.0 cm - - ()
Sea Level Pressure
Sea Level Pressure 30.03 in / 1016.71 hPa   
Wind
Wind Speed 4 mph / 6 km/h ()  
Max Wind Speed 12 mph / 18 km/h   
Max Gust Speed -   
Visibility 6.2 miles / 10.1 kilometers   
Events     
Averages and records for this station are not official NWS values.
Key: T is trace of precipitation, MM is missing value
Source: Averaged Metar Reports

Graphs

Observations

History Graphs Observations

Obs Go Here...

Features

Weather Apps

WunderRadio

Weather Underground Apps
Check out our wide variety of mobile and setup applications.

Weather Underground Applications

Top of Page

© Copyright 2019
The Weather Company, LLC
Time(CET)TemperatureDew PointHumidity Sea Level Pressure Visibility Wind DirectionWind SpeedGust SpeedPrecipitationEvents Conditions
12:00 AM 53.6 °F / 12.0 °C 50.0 °F / 10.0 °C 88% 30.09 in / 1019 hPa 6.2 miles / 10.0 kilometers SSW 4.6 mph / 7.4 km/h - N/A   Scattered Clouds
12:30 AM 53.6 °F / 12.0 °C 51.8 °F / 11.0 °C 94% 30.09 in / 1019 hPa 6.2 miles / 10.0 kilometers SSW 3.5 mph / 5.6 km/h - N/A   Scattered Clouds
1:00 AM 53.6 °F / 12.0 °C 50.0 °F / 10.0 °C 88% 30.06 in / 1018 hPa 6.2 miles / 10.0 kilometers South 4.6 mph / 7.4 km/h - N/A   Scattered Clouds
1:30 AM 53.6 °F / 12.0 °C 50.0 °F / 10.0 °C 88% 30.06 in / 1018 hPa 6.2 miles / 10.0 kilometers SE 3.5 mph / 5.6 km/h - N/A   Scattered Clouds
2:00 AM 53.6 °F / 12.0 °C 50.0 °F / 10.0 °C 88% 30.06 in / 1018 hPa 6.2 miles / 10.0 kilometers Calm Calm - N/A   Scattered Clouds
2:30 AM 51.8 °F / 11.0 °C 50.0 °F / 10.0 °C 94% 30.06 in / 1018 hPa 6.2 miles / 10.0 kilometers NNE 2.3 mph / 3.7 km/h - N/A   Scattered Clouds
3:00 AM 51.8 °F / 11.0 °C 48.2 °F / 9.0 °C 88% 30.06 in / 1018 hPa 6.2 miles / 10.0 kilometers NNE 2.3 mph / 3.7 km/h - N/A   Scattered Clouds
3:30 AM 50.0 °F / 10.0 °C 48.2 °F / 9.0 °C 94% 30.06 in / 1018 hPa 6.2 miles / 10.0 kilometers Calm Calm - N/A   Scattered Clouds
4:00 AM 49 °F / 9 °C 47 °F / 8 °C 90% 30.06 in / 1018 hPa 9 miles / 15 kilometers ENE 3.5 mph / 5.6 km/h - -   Partly Cloudy
4:00 AM 48.2 °F / 9.0 °C 46.4 °F / 8.0 °C 93% 30.06 in / 1018 hPa 6.2 miles / 10.0 kilometers ENE 3.5 mph / 5.6 km/h - N/A   Scattered Clouds
4:30 AM 48.2 °F / 9.0 °C 46.4 °F / 8.0 °C 93% 30.04 in / 1017 hPa 6.2 miles / 10.0 kilometers East 3.5 mph / 5.6 km/h - N/A   Scattered Clouds
5:00 AM 51.8 °F / 11.0 °C 50.0 °F / 10.0 °C 94% 30.04 in / 1017 hPa 6.2 miles / 10.0 kilometers East 3.5 mph / 5.6 km/h - N/A   Scattered Clouds
5:30 AM 51.8 °F / 11.0 °C 50.0 °F / 10.0 °C 94% 30.04 in / 1017 hPa 6.2 miles / 10.0 kilometers East 5.8 mph / 9.3 km/h - N/A   Scattered Clouds
6:00 AM 51.8 °F / 11.0 °C 50.0 °F / 10.0 °C 94% 30.06 in / 1018 hPa 6.2 miles / 10.0 kilometers East 4.6 mph / 7.4 km/h - N/A   Scattered Clouds
6:30 AM 51.8 °F / 11.0 °C 48.2 °F / 9.0 °C 88% 30.06 in / 1018 hPa 6.2 miles / 10.0 kilometers East 4.6 mph / 7.4 km/h - N/A   Scattered Clouds
7:00 AM 51 °F / 10 °C 48 °F / 9 °C 87% 30.06 in / 1018 hPa 6 miles / 10 kilometers ENE 3.5 mph / 5.6 km/h - -   Partly Cloudy
7:00 AM 50.0 °F / 10.0 °C 48.2 °F / 9.0 °C 94% 30.06 in / 1018 hPa 6.2 miles / 10.0 kilometers ENE 3.5 mph / 5.6 km/h - N/A   Scattered Clouds
7:30 AM 50.0 °F / 10.0 °C 48.2 °F / 9.0 °C 94% 30.06 in / 1018 hPa 6.2 miles / 10.0 kilometers ENE 3.5 mph / 5.6 km/h - N/A   Scattered Clouds
8:30 AM 53.6 °F / 12.0 °C 50.0 °F / 10.0 °C 88% 30.06 in / 1018 hPa 6.2 miles / 10.0 kilometers Calm Calm - N/A   Partly Cloudy
9:30 AM 57.2 °F / 14.0 °C 51.8 °F / 11.0 °C 82% 30.06 in / 1018 hPa 6.2 miles / 10.0 kilometers Calm Calm - N/A   Partly Cloudy
10:00 AM 59 °F / 15 °C 53 °F / 11 °C 73% 30.07 in / 1018 hPa 6 miles / 10 kilometers Calm Calm - -   Scattered Clouds
10:00 AM 59.0 °F / 15.0 °C 51.8 °F / 11.0 °C 77% 30.06 in / 1018 hPa 6.2 miles / 10.0 kilometers Calm Calm - N/A   Partly Cloudy
10:30 AM 62.6 °F / 17.0 °C 53.6 °F / 12.0 °C 72% 30.06 in / 1018 hPa 6.2 miles / 10.0 kilometers Variable 2.3 mph / 3.7 km/h - N/A   Partly Cloudy
11:00 AM 64.4 °F / 18.0 °C 53.6 °F / 12.0 °C 68% 30.06 in / 1018 hPa - WNW 2.3 mph / 3.7 km/h - N/A   Clear
11:30 AM 66.2 °F / 19.0 °C 51.8 °F / 11.0 °C 60% 30.06 in / 1018 hPa - North 3.5 mph / 5.6 km/h - N/A   Clear
12:30 PM 68.0 °F / 20.0 °C 50.0 °F / 10.0 °C 52% 30.04 in / 1017 hPa 6.2 miles / 10.0 kilometers NNW 4.6 mph / 7.4 km/h - N/A   Scattered Clouds
1:00 PM 70 °F / 21 °C 51 °F / 11 °C 41% 30.02 in / 1017 hPa 6 miles / 10 kilometers NNW 4.6 mph / 7.4 km/h - -   Scattered Clouds
1:00 PM 69.8 °F / 21.0 °C 51.8 °F / 11.0 °C 53% 30.04 in / 1017 hPa 6.2 miles / 10.0 kilometers NNW 4.6 mph / 7.4 km/h - N/A   Scattered Clouds
1:30 PM 71.6 °F / 22.0 °C 50.0 °F / 10.0 °C 46% 30.01 in / 1016 hPa 6.2 miles / 10.0 kilometers NNW 6.9 mph / 11.1 km/h - N/A   Scattered Clouds
2:00 PM 71.6 °F / 22.0 °C 53.6 °F / 12.0 °C 53% 30.01 in / 1016 hPa 6.2 miles / 10.0 kilometers North 9.2 mph / 14.8 km/h - N/A   Scattered Clouds
2:30 PM 71.6 °F / 22.0 °C 53.6 °F / 12.0 °C 53% 29.98 in / 1015 hPa 6.2 miles / 10.0 kilometers NNW 6.9 mph / 11.1 km/h - N/A   Scattered Clouds
3:00 PM 71.6 °F / 22.0 °C 55.4 °F / 13.0 °C 57% 29.98 in / 1015 hPa 6.2 miles / 10.0 kilometers North 11.5 mph / 18.5 km/h - N/A   Scattered Clouds
3:30 PM 71.6 °F / 22.0 °C 55.4 °F / 13.0 °C 57% 29.98 in / 1015 hPa 6.2 miles / 10.0 kilometers NNW 9.2 mph / 14.8 km/h - N/A   Scattered Clouds
4:00 PM 71 °F / 22 °C 53 °F / 12 °C 43% 29.94 in / 1014 hPa 6 miles / 10 kilometers NNW 9.2 mph / 14.8 km/h - -   Scattered Clouds
4:00 PM 71.6 °F / 22.0 °C 53.6 °F / 12.0 °C 53% 29.95 in / 1014 hPa 6.2 miles / 10.0 kilometers NNW 9.2 mph / 14.8 km/h - N/A   Scattered Clouds
4:30 PM 69.8 °F / 21.0 °C 53.6 °F / 12.0 °C 56% 29.95 in / 1014 hPa 6.2 miles / 10.0 kilometers NNW 9.2 mph / 14.8 km/h - N/A   Scattered Clouds
5:30 PM 68.0 °F / 20.0 °C 51.8 °F / 11.0 °C 56% 29.92 in / 1013 hPa 6.2 miles / 10.0 kilometers NNW 11.5 mph / 18.5 km/h - N/A   Scattered Clouds
6:30 PM 66.2 °F / 19.0 °C 51.8 °F / 11.0 °C 60% 29.92 in / 1013 hPa 6.2 miles / 10.0 kilometers NNW 9.2 mph / 14.8 km/h - N/A   Scattered Clouds
7:00 PM 64 °F / 18 °C 53 °F / 11 °C 57% 29.93 in / 1013 hPa 6 miles / 10 kilometers NNW 6.9 mph / 11.1 km/h - -   Scattered Clouds
7:30 PM 62.6 °F / 17.0 °C 53.6 °F / 12.0 °C 72% 29.92 in / 1013 hPa 6.2 miles / 10.0 kilometers NNW 4.6 mph / 7.4 km/h - N/A   Scattered Clouds
8:30 PM 62.6 °F / 17.0 °C 53.6 °F / 12.0 °C 72% 29.95 in / 1014 hPa 6.2 miles / 10.0 kilometers North 4.6 mph / 7.4 km/h - N/A   Scattered Clouds